EHI
0 0 0 0 0 0 0 0 0 0 0 0 0 0 0 0 0 0 0 0 0 0 0 0 0 0 0 0 0 0 0 0 0 0 0 0 0 0 0 0 0 0 0
0 0 0 0 0 0 0 0 0 0 0 0 0 0 0 0 0 0 0 0 0 0 0 0 0 0 0 0 0 0 0 0 0 0 0 0 0 0 0 0 0 0 0
0 0 0 0 0 0 0 0 0 0 0 0 0 0 0 0 0 0 0 0 0 0 0 0 0 0 0 0 0 0 0 0 0 0 0 0 0 0 0 0 0 0 0
0 0 0 0 0 0 0 0 0 0 0 0 0 0 0 0 0 0 0 0 0 0 0 0 0 0 0 0 0 0 0 0 0 0 0 0 0 0 0 0 0 0 0
0 0 0 0 0 0 0 0 0 0 0 0 0 0 0 0 0 0 0 0 0 0 0 0 0 0 0 0 0 0 0 0 0 0 0 0 0 0 0 0 0 0 0
0 0 0 0 0 0 0 0 0 0 0 0 0 0 0 0 0 0 0 0 0 0 0 0 0 0 0 0 0 0 0 0 0 0 0 0 0 0 0 0 0 0 0
0 0 0 0 0 0 0 0 0 0 0 0 0 0 0 0 0 0 0 0 0 0 0 0 0 0 0 0 0 0 0 0 0 0 0 0 0 0 0 0 0 0 0
0 0 0 0 0 0 0 0 0 0 0 0 0 0 0 0 0 0 0 0 0 0 0 0 0 0 0 0 0 0 0 0 0 0 0 0 0 0 0 0 0 0 0
0 0 0 0 0 0 0 0 0 0 0 0 0 0 0 0 0 0 0 0 0 0 0 0 0 0 0 0 0 0 0 0 0 0 0 0 0 0 0 0 0 0 0
0 0 0 0 0 0 0 0 0 0 0 0 0 0 0 0 0 0 0 0 0 0 0 0 0 0 0 0 0 0 0 0 0 0 0 0 0 0 0 0 0 0 0
0 0 0 0 0 0 0 0 0 0 0 0 0 0 0 0 0 0 0 0 0 0 0 0 0 0 0 0 0 0 0 0 0 0 0 0 0 0 0 0 0 0 0
0 0 0 0 0 0 0 0 0 0 0 0 0 0 0 0 0 0 0 0 0 0 0 0 0 0 0 0 0 0 0 0 0 0 0 0 0 0 0 0 0 0 0
0 0 0 0 0 0 0 0 0 0 0 0 0 0 0 0 0 0 0 0 0 0 0 0 0 0 0 0 0 0 0 0 0 0 0 0 0 0 0 0 0 0 0
0 0 0 0 0 0 0 0 0 0 0 0 0 0 0 0 0 0 0 0 0 0 0 0 0 0 0 0 0 0 0 0 0 0 0 0 0 0 0 0 0 0 0
0 0 0 0 0 0 0 0 0 0 0 0 0 0 0 0 0 0 0 0 0 0 0 0 0 0 0 0 0 0 0 0 0 0 0 0 0 0 0 0 0 0 0
0 0 0 0 0 0 0 0 0 0 0 0 0 0 0 0 0 0 0 0 0 0 0 0 0 0 0 0 0 0 0 0 0 0 0 0 0 0 0 0 0 0 0
0 0 0 0 0 0 0 0 0 0 0 0 0 0 0 0 0 0 0 0 0 0 0 0 0 0 0 0 0 0 0 0 0 0 0 0 0 0 0 0 0 0 0
0 0 0 0 0 0 0 0 0 0 0 0 0 0 0 0 0 0 0 0 0 0 0 0 0 0 0 0 0 0 0 0 0 0 0 0 0 0 0 0 0 0 0
0 0 0 0 0 0 0 0 0 0 0 0 0 0 0 0 0 0 0 0 0 0 0 0 0 0 0 0 0 0 0 0 0 0 0 0 0 0 0 0 0 0 0
0 0 0 0 0 0 0 0 0 0 0 0 0 0 0 0 0 0 0 0 0 0 0 0 0 0 0 0 0 0 0 0 0 0 0 0 0 0 0 0 0 0 0
0 0 0 0 0 0 0 0 0 0 0 0 0 0 0 0 0 0 0 0 0 0 0 0 0 0 0 0 0 0 0 0 0 0 0 0 0 0 0 0 0 0 0
0 0 0 0 0 0 0 0 0 0 0 0 0 0 0 0 0 0 0 0 0 0 0 0 0 0 0 0 0 0 0 0 0 0 0 0 0 0 0 0 0 0 0
0 0 0 0 0 0 0 0 0 0 0 0 0 0 0 0 0 0 0 0 0 0 0 0 0 0 0 0 0 0 0 0 0 0 0 0 0 0 0 0 0 0 0
0 0 0 0 0 0 0 0 0 0 0 0 0 0 0 0 0 0 0 0 0 0 0 0 0 0 0 0 0 0 0 0 0 0 0 0 0 0 0 0 0 0 0
0 0 0 0 0 0 0 0 0 0 0 0 0 0 0 0 0 0 0 0 0 0 0 0 0 0 0 0 0 0 0 0 0 0 0 0 0 0 0 0 0 0 0
0 0 0 0 0 0 0 0 0 0 0 0 0 0 0 0 0 0 0 0 0 0 0 0 0 0 0 0 0 0 0 0 0 0 0 0 0 0 0 0 0 0 0
Wind_Speed
5 5 6 6 6 6 6 6 5 4 4 4 3 3 2 1 1 1 0 1 1 0 0 1 1 1 1 1 1 1 1 0 2 2 2 1 2 2 2 2 3 3 4
5 6 6 6 6 6 6 5 5 5 4 4 3 3 2 2 1 1 0 1 1 1 1 2 1 1 1 1 1 1 0 1 1 3 2 1 1 1 2 2 3 3 3
6 6 6 6 6 6 6 5 5 5 4 4 3 3 2 2 2 1 1 1 2 2 2 2 2 2 1 1 1 1 0 1 1 3 2 1 1 1 2 2 2 3 3
6 7 6 6 6 6 5 5 5 5 4 3 3 3 2 2 2 2 2 2 2 2 2 2 2 2 2 1 1 1 1 1 2 3 2 2 2 2 2 1 1 2 2
7 7 6 6 6 6 5 5 4 4 4 4 3 2 2 2 2 2 2 2 3 3 3 2 2 3 3 2 1 1 1 1 2 2 2 2 1 1 1 1 1 1 1
8 7 6 6 6 6 5 5 5 4 3 3 3 3 3 2 3 5 3 2 3 3 3 2 2 3 4 5 5 4 3 2 2 2 2 2 2 2 2 1 1 1 1
7 7 7 7 7 6 6 5 5 4 4 4 3 3 3 3 5 5 5 3 3 3 3 2 2 2 4 3 5 7 6 5 3 3 3 3 3 3 3 2 1 1 1
7 7 8 8 7 6 6 6 5 4 4 3 4 4 3 4 6 5 6 3 2 2 3 3 3 2 2 3 3 3 3 3 3 3 3 3 3 3 3 3 3 1 0
8 8 8 8 8 7 7 6 5 4 4 3 3 4 4 4 7 7 6 3 2 2 2 3 4 3 5 6 4 3 2 1 3 5 5 4 5 5 5 3 2 2 0
8 7 7 8 8 8 7 6 4 4 4 4 4 4 5 4 7 8 8 3 3 2 2 2 5 6 6 6 4 3 3 2 1 1 2 3 2 2 3 3 3 3 1
5 6 6 7 7 7 6 5 5 4 4 4 4 4 4 6 8 10 10 4 4 4 3 3 3 8 8 7 6 4 5 4 3 2 1 1 1 1 1 2 3 3 3
5 6 6 7 6 6 6 6 5 6 6 5 5 4 4 5 8 10 12 11 8 5 4 3 4 9 9 8 6 6 7 5 3 2 2 2 2 2 2 2 2 2 3
5 5 5 6 6 6 7 7 6 6 5 5 5 5 4 4 6 13 14 14 13 6 5 8 9 11 9 6 8 9 6 3 3 3 3 3 2 2 2 1 1 1 1
5 5 5 6 6 6 6 6 6 7 6 6 6 6 5 4 5 5 5 6 10 8 5 8 11 11 8 7 6 5 3 4 4 3 3 2 2 2 2 2 2 1 1
4 4 5 5 6 6 6 6 7 7 8 8 6 6 6 6 9 13 8 6 5 5 4 3 3 2 3 3 3 3 3 3 4 3 3 3 3 3 3 3 2 2 2
3 4 4 4 5 5 5 5 10 11 14 16 13 10 8 11 11 14 16 16 15 14 8 4 5 6 6 6 6 5 5 5 5 4 4 4 4 4 3 3 3 3 3
4 4 3 4 4 5 5 5 5 8 13 15 16 17 15 13 14 14 15 16 16 15 9 6 6 7 7 6 6 6 5 5 5 5 5 5 4 4 4 4 4 4 4
4 4 4 4 4 5 5 5 5 5 5 5 10 16 17 16 15 15 15 12 9 10 7 7 8 7 7 7 7 6 6 5 5 5 5 5 5 5 4 4 5 5 5
4 3 3 3 4 4 4 5 5 6 5 4 3 6 13 14 15 15 13 7 7 8 8 8 8 7 7 7 7 6 6 6 6 6 6 6 6 6 5 5 5 8 7
4 6 5 3 3 4 4 4 5 5 5 5 5 5 4 6 6 7 9 7 8 8 8 8 8 8 8 7 7 6 6 6 7 6 6 6 6 6 6 7 6 6 6
4 4 5 4 4 4 4 5 5 5 5 5 5 6 8 6 6 6 6 7 8 8 8 7 7 7 7 7 7 8 8 7 7 7 6 6 6 6 6 6 6 6 6
3 3 3 4 3 4 4 4 4 5 5 6 4 5 10 6 5 5 6 6 6 6 6 6 6 6 7 7 7 8 8 8 7 7 7 6 6 7 6 6 6 6 6
3 4 4 4 4 5 4 3 4 4 4 4 4 4 4 4 5 5 5 5 4 4 4 5 6 6 6 6 7 7 8 8 7 7 7 7 6 6 6 7 8 7 7
3 4 4 4 3 3 3 3 3 4 4 4 4 4 4 4 4 5 4 4 4 4 4 4 5 7 8 7 6 6 7 7 6 7 9 7 7 6 6 6 7 8 7
3 4 4 3 3 3 3 3 3 3 3 3 3 3 3 3 4 4 4 4 4 4 5 5 4 6 8 9 7 6 9 13 11 7 7 7 7 8 7 7 7 7 8
3 4 4 3 3 3 3 3 3 3 2 2 2 3 3 3 3 3 3 3 4 4 4 4 6 6 6 6 7 9 11 13 13 13 8 6 7 7 7 7 8 8 8
Wind_Direction
146 133 126 124 122 118 118 123 123 118 118 121 121 117 109 90 61 66 280 269 207 211 158 129 98 66 51 9 355 353 332 241 199 126 106 101 85 78 57 50 48 39 29
146 135 131 126 122 120 122 124 124 121 120 121 117 114 113 103 87 96 104 94 152 155 127 121 111 96 70 25 22 29 348 313 171 155 127 119 108 102 78 63 45 41 25
143 139 137 135 134 137 137 134 130 128 125 121 123 126 125 122 111 104 113 99 101 111 115 120 116 113 90 52 44 44 354 359 96 132 131 121 104 84 76 55 47 24 21
149 150 154 155 152 149 143 139 136 133 135 139 139 142 145 142 133 125 121 117 108 97 94 103 110 124 130 119 77 45 64 79 89 109 117 110 101 78 86 79 40 20 12
159 164 169 159 149 144 142 141 138 143 151 152 151 151 149 151 158 147 139 146 134 116 98 90 98 114 128 127 118 97 104 108 108 109 117 111 115 110 123 101 87 5 2
171 174 164 155 152 153 152 151 151 156 158 159 167 169 173 184 184 181 169 157 153 147 136 111 92 79 85 86 84 85 107 134 151 145 147 152 158 147 127 114 109 80 302
177 171 165 162 162 165 162 161 168 173 172 175 179 177 179 191 195 192 183 155 157 162 160 158 145 113 91 75 71 59 53 65 119 158 157 169 166 169 146 134 149 170 226
179 176 171 168 170 167 168 176 178 173 178 182 184 182 181 200 200 190 169 141 147 163 171 174 161 150 155 139 114 80 53 41 69 95 135 154 159 156 160 162 162 146 321
186 185 179 174 172 173 180 182 179 175 181 184 182 183 188 204 201 189 166 148 163 180 188 185 176 185 198 165 143 133 94 33 84 116 128 141 148 155 150 119 114 96 113
196 188 177 174 175 181 184 179 174 176 185 183 191 193 196 207 211 204 184 165 180 194 208 212 204 201 207 181 163 166 180 205 150 93 77 71 59 71 132 145 148 140 162
180 169 171 175 178 178 175 172 173 177 181 190 198 207 209 215 222 218 202 181 190 195 203 212 230 222 216 206 190 188 208 191 178 170 156 132 97 93 115 139 152 153 164
165 172 177 177 177 173 173 178 180 182 191 199 205 217 223 223 224 227 219 210 201 196 205 206 221 227 224 221 209 211 217 186 160 174 188 199 202 213 210 187 177 176 184
172 182 182 178 180 175 177 182 186 193 203 206 209 220 223 217 226 229 227 223 218 205 208 214 219 227 225 226 225 224 215 176 175 197 209 213 210 205 178 169 184 194 233
190 191 184 184 187 185 187 188 194 202 208 210 212 220 221 216 216 222 225 229 226 219 210 223 225 228 219 214 227 234 203 189 193 205 210 205 179 172 186 184 189 186 237
203 199 194 195 195 197 201 204 205 211 210 210 213 210 210 222 224 216 207 211 205 204 181 187 198 203 209 206 213 218 212 213 217 200 201 200 199 196 201 188 186 180 197
216 209 205 203 202 204 208 220 222 221 227 229 226 219 223 228 231 226 223 222 221 216 202 198 208 213 217 218 219 219 216 217 214 207 205 207 207 205 208 197 192 198 218
229 222 216 211 209 209 210 215 228 232 234 236 236 235 232 232 233 230 226 224 222 216 213 210 214 216 218 217 215 215 218 215 206 204 208 207 206 205 205 208 209 217 230
246 233 225 222 218 216 216 217 218 221 227 235 236 236 236 235 232 230 227 221 222 218 214 216 217 217 216 216 216 217 218 212 205 207 208 206 202 201 207 212 213 219 230
256 245 232 227 223 223 221 219 220 222 228 233 227 236 236 236 233 230 222 215 215 219 220 221 220 217 216 217 218 215 212 211 206 203 207 206 203 202 212 216 217 233 233
261 255 248 234 227 225 221 221 223 224 228 229 230 229 215 214 218 218 214 211 216 223 223 224 222 219 217 216 215 213 214 214 210 210 210 207 204 204 213 215 216 223 229
269 264 255 245 235 231 228 226 226 226 229 231 233 227 215 212 219 219 216 216 218 222 222 222 222 219 217 214 213 214 214 215 211 209 209 207 203 207 213 214 217 221 227
272 270 261 253 246 240 239 233 230 229 230 234 237 236 236 224 219 224 224 226 225 223 219 217 220 219 215 212 212 213 215 217 213 209 208 207 206 209 209 212 216 219 223
270 270 266 260 254 258 255 239 236 234 233 232 232 228 228 228 227 228 230 230 229 227 220 218 223 224 217 214 212 212 216 216 211 204 203 205 205 206 207 213 216 218 223
268 269 267 264 259 254 253 250 245 242 239 235 230 228 228 229 233 236 234 232 230 230 226 225 228 229 224 218 215 215 218 215 204 203 200 202 204 205 207 213 218 222 225
262 267 270 269 266 263 261 258 253 250 248 244 238 236 234 235 239 241 238 234 233 235 234 230 229 230 230 227 222 219 223 224 216 203 198 203 206 205 206 212 217 222 225
260 264 265 265 265 266 266 264 261 259 258 256 252 248 243 241 242 244 243 239 237 237 237 232 230 229 229 229 229 231 234 234 229 220 205 202 204 209 208 216 217 223 227